Météo par heure à Judyty

Ce jour, 20 Juin, Dimanche

Heure Température Précipitation Vent Pression Humidité
00:00 +21°C° 0 mm 3 m/s 756 mmHg 85%
01:00 +21°C° 0 mm 3 m/s 756 mmHg 86%
02:00 +21°C° 0 mm 3 m/s 756 mmHg 86%
03:00 +20°C° 0 mm 3 m/s 756 mmHg 87%
04:00 +20°C° 0 mm 3 m/s 756 mmHg 87%
05:00 +21°C° 0 mm 3 m/s 756 mmHg 84%
06:00 +22°C° 0 mm 4 m/s 756 mmHg 80%
07:00 +25°C° 0 mm 4 m/s 756 mmHg 76%
08:00 +26°C° 0 mm 4 m/s 756 mmHg 71%
09:00 +27°C° 0 mm 4 m/s 756 mmHg 66%
10:00 +28°C° 0 mm 4 m/s 756 mmHg 60%
11:00 +29°C° 0 mm 4 m/s 756 mmHg 58%
12:00 +29°C° 0 mm 5 m/s 755 mmHg 56%
13:00 +30°C° 0 mm 5 m/s 755 mmHg 54%
14:00 +30°C° 0 mm 4 m/s 755 mmHg 56%
15:00 +30°C° 0 mm 4 m/s 754 mmHg 59%
16:00 +30°C° 0 mm 3 m/s 754 mmHg 61%
17:00 +29°C° 0.1 mm 3 m/s 754 mmHg 67%
18:00 +27°C° 0.1 mm 3 m/s 754 mmHg 73%
19:00 +26°C° 0.1 mm 3 m/s 753 mmHg 79%
20:00 +25°C° 0 mm 3 m/s 754 mmHg 81%
21:00 +24°C° 0 mm 3 m/s 754 mmHg 83%
22:00 +22°C° 0 mm 3 m/s 754 mmHg 85%
23:00 +21°C° 0 mm 3 m/s 754 mmHg 88%

Demain, 21 Juin, Lundi

Heure Température Précipitation Vent Pression Humidité
00:00 +21°C° 0 mm 3 m/s 754 mmHg 91%
01:00 +20°C° 0 mm 3 m/s 754 mmHg 94%
02:00 +20°C° 0 mm 3 m/s 753 mmHg 94%
03:00 +20°C° 0 mm 3 m/s 753 mmHg 94%
04:00 +20°C° 0 mm 3 m/s 753 mmHg 94%
05:00 +21°C° 0 mm 3 m/s 753 mmHg 88%
06:00 +24°C° 0 mm 3 m/s 753 mmHg 83%
07:00 +25°C° 0 mm 4 m/s 753 mmHg 77%
08:00 +26°C° 0 mm 4 m/s 753 mmHg 72%
09:00 +28°C° 0 mm 5 m/s 753 mmHg 66%
10:00 +29°C° 0 mm 5 m/s 753 mmHg 60%
11:00 +29°C° 0 mm 5 m/s 753 mmHg 58%
12:00 +30°C° 0 mm 5 m/s 753 mmHg 56%
13:00 +30°C° 0 mm 5 m/s 752 mmHg 53%
14:00 +30°C° 0 mm 5 m/s 752 mmHg 56%
15:00 +30°C° 0 mm 5 m/s 752 mmHg 59%
16:00 +30°C° 0 mm 4 m/s 751 mmHg 61%
17:00 +28°C° 0 mm 4 m/s 751 mmHg 67%
18:00 +27°C° 0 mm 4 m/s 751 mmHg 73%
19:00 +25°C° 0 mm 3 m/s 751 mmHg 78%
20:00 +24°C° 0 mm 3 m/s 751 mmHg 82%
21:00 +22°C° 0 mm 3 m/s 751 mmHg 85%
22:00 +21°C° 0 mm 3 m/s 751 mmHg 89%
23:00 +20°C° 0.1 mm 3 m/s 751 mmHg 90%

Après-demain, 22 Juin, Mardi

Heure Température Précipitation Vent Pression Humidité
00:00 +20°C° 0.1 mm 3 m/s 751 mmHg 92%
01:00 +20°C° 0.1 mm 3 m/s 751 mmHg 94%
02:00 +20°C° 0.2 mm 3 m/s 751 mmHg 94%
03:00 +19°C° 0.2 mm 3 m/s 751 mmHg 95%
04:00 +19°C° 0.2 mm 3 m/s 751 mmHg 95%
05:00 +21°C° 0 mm 3 m/s 751 mmHg 91%
06:00 +22°C° 0 mm 3 m/s 751 mmHg 87%
07:00 +25°C° 0 mm 3 m/s 752 mmHg 82%
08:00 +25°C° 0.4 mm 3 m/s 752 mmHg 80%
09:00 +26°C° 0.4 mm 3 m/s 752 mmHg 77%
10:00 +27°C° 0.4 mm 3 m/s 752 mmHg 74%
11:00 +26°C° 0.3 mm 3 m/s 753 mmHg 75%
12:00 +26°C° 0.3 mm 3 m/s 753 mmHg 76%
13:00 +26°C° 0.3 mm 3 m/s 753 mmHg 77%
14:00 +25°C° 0.5 mm 3 m/s 753 mmHg 79%
15:00 +24°C° 0.5 mm 3 m/s 754 mmHg 81%
16:00 +22°C° 0.5 mm 3 m/s 754 mmHg 83%
17:00 +21°C° 0.2 mm 3 m/s 754 mmHg 85%
18:00 +20°C° 0.2 mm 3 m/s 755 mmHg 87%
19:00 +20°C° 0.2 mm 3 m/s 755 mmHg 89%
20:00 +18°C° 0 mm 2 m/s 755 mmHg 90%
21:00 +17°C° 0 mm 2 m/s 755 mmHg 91%
22:00 +15°C° 0 mm 2 m/s 756 mmHg 92%
23:00 +15°C° 0 mm 2 m/s 756 mmHg 91%

23 Juin, Mercredi

Heure Température Précipitation Vent Pression Humidité
00:00 +14°C° 0 mm 2 m/s 756 mmHg 90%
01:00 +14°C° 0 mm 1 m/s 755 mmHg 89%
02:00 +14°C° 0 mm 1 m/s 756 mmHg 87%
03:00 +14°C° 0 mm 2 m/s 756 mmHg 86%
04:00 +14°C° 0 mm 2 m/s 756 mmHg 84%
05:00 +15°C° 0 mm 2 m/s 756 mmHg 79%
06:00 +17°C° 0 mm 2 m/s 756 mmHg 74%
07:00 +19°C° 0 mm 2 m/s 756 mmHg 70%
08:00 +21°C° 0 mm 2 m/s 756 mmHg 68%
09:00 +24°C° 0 mm 2 m/s 756 mmHg 67%
10:00 +25°C° 0 mm 2 m/s 756 mmHg 65%
11:00 +26°C° 0 mm 2 m/s 756 mmHg 65%
12:00 +27°C° 0 mm 2 m/s 756 mmHg 65%
13:00 +28°C° 0 mm 2 m/s 756 mmHg 65%
14:00 +28°C° 0 mm 2 m/s 755 mmHg 66%
15:00 +28°C° 0 mm 3 m/s 755 mmHg 67%
16:00 +28°C° 0 mm 3 m/s 755 mmHg 67%
17:00 +26°C° 1.1 mm 3 m/s 755 mmHg 75%
18:00 +24°C° 1.1 mm 3 m/s 755 mmHg 82%
19:00 +21°C° 1.1 mm 3 m/s 755 mmHg 89%
20:00 +21°C° 1.4 mm 2 m/s 755 mmHg 90%
21:00 +20°C° 1.4 mm 2 m/s 755 mmHg 91%
22:00 +19°C° 1.4 mm 2 m/s 755 mmHg 93%
23:00 +19°C° 0.1 mm 2 m/s 755 mmHg 93%

24 Juin, Jeudi

Heure Température Précipitation Vent Pression Humidité
00:00 +19°C° 0.1 mm 2 m/s 755 mmHg 94%
01:00 +19°C° 0.1 mm 2 m/s 755 mmHg 94%
02:00 +19°C° 0 mm 2 m/s 755 mmHg 95%
03:00 +18°C° 0 mm 2 m/s 755 mmHg 96%
04:00 +18°C° 0 mm 3 m/s 756 mmHg 97%
05:00 +19°C° 0 mm 3 m/s 756 mmHg 95%
06:00 +20°C° 0 mm 3 m/s 756 mmHg 92%
07:00 +20°C° 0 mm 4 m/s 756 mmHg 90%
08:00 +21°C° 0 mm 4 m/s 757 mmHg 84%
09:00 +22°C° 0 mm 4 m/s 757 mmHg 78%
10:00 +23°C° 0 mm 4 m/s 757 mmHg 73%
11:00 +25°C° 0 mm 4 m/s 757 mmHg 70%
12:00 +25°C° 0 mm 3 m/s 757 mmHg 68%
13:00 +25°C° 0 mm 3 m/s 757 mmHg 66%
14:00 +25°C° 0 mm 3 m/s 757 mmHg 67%
15:00 +25°C° 0 mm 2 m/s 757 mmHg 67%
16:00 +25°C° 0 mm 2 m/s 757 mmHg 68%
17:00 +24°C° 0 mm 2 m/s 757 mmHg 73%
18:00 +23°C° 0 mm 2 m/s 757 mmHg 79%
19:00 +21°C° 0 mm 3 m/s 756 mmHg 84%
20:00 +19°C° 0 mm 3 m/s 757 mmHg 88%
21:00 +18°C° 0 mm 2 m/s 757 mmHg 91%
22:00 +16°C° 0 mm 2 m/s 757 mmHg 95%
23:00 +16°C° 0 mm 2 m/s 757 mmHg 95%

25 Juin, Vendredi

Heure Température Précipitation Vent Pression Humidité
00:00 +15°C° 0 mm 2 m/s 757 mmHg 95%
01:00 +15°C° 0 mm 2 m/s 757 mmHg 95%
02:00 +15°C° 0 mm 2 m/s 756 mmHg 95%
03:00 +15°C° 0 mm 2 m/s 756 mmHg 95%
04:00 +15°C° 0 mm 2 m/s 756 mmHg 94%
05:00 +16°C° 0.1 mm 2 m/s 756 mmHg 93%
06:00 +17°C° 0.1 mm 2 m/s 756 mmHg 92%
07:00 +17°C° 0.1 mm 3 m/s 755 mmHg 91%
08:00 +18°C° 0 mm 3 m/s 755 mmHg 87%
09:00 +19°C° 0 mm 2 m/s 755 mmHg 83%
10:00 +20°C° 0 mm 2 m/s 755 mmHg 79%
11:00 +20°C° 0 mm 3 m/s 755 mmHg 78%
12:00 +21°C° 0 mm 3 m/s 755 mmHg 78%
13:00 +21°C° 0 mm 4 m/s 755 mmHg 77%
14:00 +20°C° 0 mm 5 m/s 756 mmHg 79%
15:00 +19°C° 0 mm 5 m/s 756 mmHg 80%
16:00 +17°C° 0 mm 6 m/s 756 mmHg 82%
17:00 +16°C° 0 mm 5 m/s 756 mmHg 82%
18:00 +16°C° 0 mm 5 m/s 756 mmHg 82%
19:00 +15°C° 0 mm 4 m/s 757 mmHg 83%
20:00 +14°C° 0 mm 4 m/s 757 mmHg 86%
21:00 +13°C° 0 mm 3 m/s 757 mmHg 90%
22:00 +12°C° 0 mm 3 m/s 757 mmHg 94%
23:00 +13°C° 0 mm 2 m/s 757 mmHg 95%
Voir plus

Nous avons besoin de votre consentement

Meteoprog et ses fournisseurs de services peuvent stocker et accéder à des données personnelles telles que des cookies, des identifiants d'appareils ou d'autres technologies similaires sur votre appareil et traiter ces données pour personnaliser le contenu et les publicités, ainsi que pour fournir des fonctionnalités de médias sociaux et analyser le trafic.

  • Stocker et/ou accéder à des informations sur votre appareil

    Des cookies, des identifiants d'appareils ou d'autres informations peuvent être stockés ou accessibles sur votre appareil aux fins indiquées ci-dessus.

  • Annonces et contenus personnalisés, mesure des annonces et des contenus, connaissance de l'audience et développement de produits

    Les annonces et le contenu peuvent être personnalisés en fonction d'un profil. D'autres données peuvent être ajoutées pour mieux personnaliser les annonces et le contenu. Les performances des publicités et du contenu peuvent être mesurées. Il est possible d'obtenir des informations sur le public qui a vu les publicités et le contenu. Ces données peuvent être utilisées pour développer ou améliorer l'expérience de l'utilisateur, les systèmes et les logiciels.

En cliquant sur "J'accepte", vous autorisez l'utilisation de cookies, des identifiants d'appareils, des balises web ou d'autres technologies similaires. Vos paramètres peuvent être modifiés dans le navigateur de votre appareil.

Dans certains cas, des intérêts légitimes peuvent être invoqués plutôt qu'un consentement. Vous pouvez en savoir plus à ce sujet dans notre Politique de confidentialité et de cookies.